World > North America > United States > Texas   City of Dalhart, TX
Hourly Weather in Dalhart, TexasDalhart, Texas Hourly Weather

Dalhart, TX Hourly Weather

Hourly Weather Dalhart, TexasHourly Weather in Dalhart, TX
Lat: 36.06N, Lon: 102.51W  ICAO: KDHT
Web Search
Dalhart Weather Warning NWS WEATHER ALERT FOR THE DALHART, TX AREA - Issued: 258 AM CST Wed Dec 8 2021 Dalhart Weather Warning  

Our weather pages are very print friendly and they make great conversation starters.

Feedback

Dalhart Hourly Weather

36 Hour Weather Scroll   °F Click to change Dalhart hourly weather to Imperial units.Click to change Dalhart hourly weather to Metric units. °C
Currently, Clear, temperature is 30°F-1°C, dew point 17°F-8°C, humidity 58%. Wind direction is W at 10 mph16 km/h with visibility of 10.00 mi16 km. Barometric pressure is 29.94 in1014 mb.

Dec 08
6:00 AM

Dec 08
7:00 AM

Dec 08
8:00 AM

Dec 08
9:00 AM

Dec 08
10:00 AM

Dec 08
11:00 AM

Dec 08
NOON

Dec 08
1:00 PM

Dec 08
2:00 PM

Dec 08
3:00 PM

Dec 08
4:00 PM

Dec 08
5:00 PM

Dec 08
6:00 PM

Dec 08
7:00 PM

Dec 08
8:00 PM

Dec 08
9:00 PM

Dec 08
10:00 PM

Dec 08
11:00 PM

Dec 09
MIDNIGHT

Dec 09
1:00 AM

Dec 09
2:00 AM

Dec 09
3:00 AM

Dec 09
4:00 AM

Dec 09
5:00 AM

Dec 09
6:00 AM

Dec 09
7:00 AM

Dec 09
8:00 AM

Dec 09
9:00 AM

Dec 09
10:00 AM

Dec 09
11:00 AM

Dec 09
NOON

Dec 09
1:00 PM

Dec 09
2:00 PM

Dec 09
3:00 PM

Dec 09
4:00 PM

Dec 09
5:00 PM
Clear Clear Clear Clear Clear Clear Clear Clear Clear Clear Clear Mostly Cloudy Mostly Cloudy Mostly Cloudy Partly Cloudy Partly Cloudy Partly Cloudy Clear Clear Clear Clear Clear Clear Clear Clear Clear Clear Clear Clear Clear Clear Clear Mostly Clear Mostly Clear Mostly Clear Mostly Cloudy
Clear Clear Clear Clear Clear Clear Clear Clear Clear Clear Clear Mostly Cloudy Mostly Cloudy Mostly Cloudy Partly Cloudy Partly Cloudy Partly Cloudy Clear Clear Clear Clear Clear Clear Clear Clear Clear Clear Clear Clear Clear Clear Clear Mostly Clear Mostly Clear Mostly Clear Mostly Cloudy
28°F-2°C 31°F-1°C 34°F1°C 37°F3°C 44°F7°C 52°F11°C 59°F15°C 62°F17°C 65°F18°C 68°F20°C 65°F18°C 63°F17°C 60°F16°C 57°F14°C 55°F13°C 52°F11°C 51°F11°C 50°F10°C 49°F9°C 48°F9°C 48°F9°C 47°F8°C 46°F8°C 46°F8°C 45°F7°C 45°F7°C 45°F7°C 45°F7°C 51°F11°C 56°F13°C 62°F17°C 64°F18°C 66°F19°C 68°F20°C 65°F18°C 62°F17°C
- - - - - - - - - - - - - - - - - - - - - - - - - - - - - - - - - - - -
0% 0% 0% 0% 0% 0% 0% 0% 0% 0% 0% 0% 0% 0% 0% 0% 0% 0% 0% 1% 1% 1% 1% 1% 1% 0% 0% 0% 0% 0% 0% 0% 0% 0% 0% 0%
18°F-8°C 19°F-7°C 21°F-6°C 22°F-6°C 23°F-5°C 24°F-4°C 25°F-4°C 24°F-4°C 23°F-5°C 22°F-6°C 23°F-5°C 23°F-5°C 24°F-4°C 25°F-4°C 25°F-4°C 26°F-3°C 26°F-3°C 27°F-3°C 27°F-3°C 27°F-3°C 28°F-2°C 28°F-2°C 28°F-2°C 28°F-2°C 28°F-2°C 28°F-2°C 28°F-2°C 28°F-2°C 28°F-2°C 27°F-3°C 27°F-3°C 26°F-3°C 25°F-4°C 24°F-4°C 25°F-4°C 25°F-4°C
66% 61% 59% 54% 43% 33% 27% 23% 20% 17% 20% 21% 25% 29% 31% 36% 38% 41% 42% 44% 46% 47% 49% 49% 51% 51% 51% 51% 41% 33% 26% 24% 21% 19% 22% 24%
SSE SSE SW SW SSE SSE S SSE SW SW SW SW SW SW SSW SSW SSW SW SW SW SW SW SW SW SW SSW SSW SSW SSW SSW SW SW SW SW SW SW
5 mph 5 mph 4 mph 4 mph 4 mph 13 mph 13 mph 13 mph 20 mph 20 mph 20 mph 25 mph 25 mph 25 mph 23 mph 23 mph 23 mph 18 mph 18 mph 18 mph 15 mph 15 mph 15 mph 11 mph 11 mph 11 mph 9 mph 9 mph 9 mph 16 mph 16 mph 16 mph 23 mph 23 mph 23 mph 20 mph
10 mi16 km 10 mi16 km 10 mi16 km 10 mi16 km 10 mi16 km 10 mi16 km 10 mi16 km 10 mi16 km 10 mi16 km 10 mi16 km 10 mi16 km 10 mi16 km 10 mi16 km 10 mi16 km 10 mi16 km 10 mi16 km 10 mi16 km 10 mi16 km 10 mi16 km 10 mi16 km 10 mi16 km 10 mi16 km 10 mi16 km 10 mi16 km 10 mi16 km 10 mi16 km 10 mi16 km 10 mi16 km 10 mi16 km 10 mi16 km 10 mi16 km 10 mi16 km 10 mi16 km 10 mi16 km 10 mi16 km 10 mi16 km
Hour (CST)
Weather
Clouds
Temperature
Precip. Type
POP
Dewpoint
Humidity
Wind Direction
Wind Speed
Visibility
POP = Probability of Precipitation. ** Indicates missing data/values from model statistics.

24 Hour Forecast

Today - Partly cloudy. Breezy. Highs in the mid 60s. West winds 10 to 15 mph shifting to the southwest 15 to 25 mph in the afternoon.
Tonight - Partly cloudy in the evening then clearing. Breezy. Lows in the mid 30s. Southwest winds 15 to 25 mph.

48 Hour Forecast API Feed


Wed, Dec 8
6:00 am

Wed, Dec 8
7:00 am

Wed, Dec 8
8:00 am

Wed, Dec 8
9:00 am

Wed, Dec 8
10:00 am

Wed, Dec 8
11:00 am

Wed, Dec 8
Noon

Wed, Dec 8
1:00 pm

Wed, Dec 8
2:00 pm

Wed, Dec 8
3:00 pm

Wed, Dec 8
4:00 pm

Wed, Dec 8
5:00 pm

Wed, Dec 8
6:00 pm

Wed, Dec 8
7:00 pm

Wed, Dec 8
8:00 pm

Wed, Dec 8
9:00 pm

Wed, Dec 8
10:00 pm

Wed, Dec 8
11:00 pm

Thu, Dec 9
Midnight

Thu, Dec 9
1:00 am

Thu, Dec 9
2:00 am

Thu, Dec 9
3:00 am

Thu, Dec 9
4:00 am

Thu, Dec 9
5:00 am

Thu, Dec 9
6:00 am

Thu, Dec 9
7:00 am

Thu, Dec 9
8:00 am

Thu, Dec 9
9:00 am

Thu, Dec 9
10:00 am

Thu, Dec 9
11:00 am

Thu, Dec 9
Noon

Thu, Dec 9
1:00 pm

Thu, Dec 9
2:00 pm

Thu, Dec 9
3:00 pm

Thu, Dec 9
4:00 pm

Thu, Dec 9
5:00 pm

Thu, Dec 9
6:00 pm

Thu, Dec 9
7:00 pm

Thu, Dec 9
8:00 pm

Thu, Dec 9
9:00 pm

Thu, Dec 9
10:00 pm

Thu, Dec 9
11:00 pm

Fri, Dec 10
Midnight

Fri, Dec 10
1:00 am

Fri, Dec 10
2:00 am

Fri, Dec 10
3:00 am

Fri, Dec 10
4:00 am

Fri, Dec 10
5:00 am
ClearClearSunnySunnySunnySunnySunnySunnySunnySunnyOvercastCloudyOvercastClearClearClearClearClearClearClearClearClearClearClearClearClearSunnySunnySunnySunnySunnySunnySunnySunnySunnyPartly CloudyOvercastClearClearClearClearClearClearClearClearCloudyClearClear
Clear Clear Sunny Sunny Sunny Sunny Sunny Sunny Sunny Sunny Overcast Cloudy Overcast Clear Clear Clear Clear Clear Clear Clear Clear Clear Clear Clear Clear Clear Sunny Sunny Sunny Sunny Sunny Sunny Sunny Sunny Sunny Partly cloudy Overcast Clear Clear Clear Clear Clear Clear Clear Clear Cloudy Clear Clear
37°F
3°C
37°F
3°C
37°F
3°C
37°F
3°C
41°F
5°C
47°F
9°C
52°F
11°C
55°F
13°C
57°F
14°C
57°F
14°C
59°F
15°C
63°F
17°C
62°F
17°C
60°F
15°C
58°F
15°C
57°F
14°C
56°F
13°C
55°F
13°C
54°F
12°C
52°F
11°C
51°F
11°C
52°F
11°C
50°F
10°C
47°F
9°C
45°F
7°C
42°F
6°C
41°F
5°C
41°F
5°C
45°F
7°C
52°F
11°C
57°F
14°C
62°F
17°C
66°F
19°C
67°F
19°C
67°F
20°C
64°F
18°C
61°F
16°C
60°F
16°C
58°F
15°C
55°F
13°C
49°F
10°C
51°F
11°C
53°F
11°C
53°F
12°C
54°F
12°C
53°F
12°C
54°F
12°C
54°F
12°C
17°F
-8°C
17°F
-8°C
18°F
-8°C
18°F
-8°C
18°F
-8°C
19°F
-7°C
20°F
-7°C
21°F
-6°C
22°F
-5°C
22°F
-5°C
22°F
-5°C
21°F
-6°C
19°F
-7°C
20°F
-7°C
22°F
-6°C
23°F
-5°C
24°F
-5°C
23°F
-5°C
23°F
-5°C
23°F
-5°C
23°F
-5°C
25°F
-4°C
26°F
-4°C
26°F
-3°C
27°F
-3°C
27°F
-3°C
27°F
-3°C
28°F
-3°C
28°F
-2°C
29°F
-2°C
27°F
-3°C
24°F
-4°C
22°F
-6°C
23°F
-5°C
23°F
-5°C
29°F
-2°C
29°F
-2°C
29°F
-2°C
28°F
-2°C
28°F
-3°C
28°F
-2°C
27°F
-3°C
25°F
-4°C
25°F
-4°C
26°F
-3°C
26°F
-3°C
27°F
-3°C
28°F
-2°C
29.97 in
1015 mb
29.94 in
1014 mb
29.94 in
1014 mb
29.94 in
1014 mb
29.94 in
1014 mb
29.91 in
1013 mb
29.85 in
1011 mb
29.83 in
1010 mb
29.77 in
1008 mb
29.71 in
1006 mb
29.65 in
1004 mb
29.59 in
1002 mb
29.56 in
1001 mb
29.59 in
1002 mb
29.59 in
1002 mb
29.62 in
1003 mb
29.62 in
1003 mb
29.59 in
1002 mb
29.62 in
1003 mb
29.65 in
1004 mb
29.65 in
1004 mb
29.62 in
1003 mb
29.65 in
1004 mb
29.65 in
1004 mb
29.68 in
1005 mb
29.71 in
1006 mb
29.74 in
1007 mb
29.74 in
1007 mb
29.74 in
1007 mb
29.71 in
1006 mb
29.68 in
1005 mb
29.65 in
1004 mb
29.59 in
1002 mb
29.56 in
1001 mb
29.53 in
1000 mb
29.53 in
1000 mb
29.53 in
1000 mb
29.56 in
1001 mb
29.59 in
1002 mb
29.62 in
1003 mb
29.62 in
1003 mb
29.62 in
1003 mb
29.59 in
1002 mb
29.59 in
1002 mb
29.56 in
1001 mb
29.56 in
1001 mb
29.53 in
1000 mb
29.5 in
999 mb
44%44%45%45%39%32%28%26%26%25%24%20%19%21%24%26%28%29%30%31%33%35%38%43%50%54%57%59%52%40%31%24%18%18%18%26%30%31%31%34%44%38%33%34%34%35%35%37%
WSWSWSWSWSSWSSWSSWSSSWSSWSWSWSWWSWWSWWSWWSWWSWWSWWSWWSWWSWWSWWSWWSWWSWWSWSWSWWSWWWWSWSWSWWSWSWWSWWSWWSWSWSWSWSWSWSWSWSW
7 mph
12 km/h
8 mph
13 km/h
7 mph
11 km/h
6 mph
10 km/h
7 mph
11 km/h
9 mph
15 km/h
10 mph
15 km/h
12 mph
19 km/h
14 mph
22 km/h
15 mph
24 km/h
19 mph
30 km/h
18 mph
29 km/h
28 mph
46 km/h
32 mph
52 km/h
33 mph
53 km/h
30 mph
49 km/h
30 mph
48 km/h
28 mph
45 km/h
24 mph
39 km/h
22 mph
35 km/h
20 mph
32 km/h
19 mph
31 km/h
17 mph
27 km/h
15 mph
23 km/h
12 mph
19 km/h
9 mph
15 km/h
8 mph
13 km/h
9 mph
14 km/h
7 mph
11 km/h
9 mph
14 km/h
6 mph
9 km/h
6 mph
10 km/h
9 mph
14 km/h
15 mph
24 km/h
19 mph
31 km/h
26 mph
42 km/h
28 mph
46 km/h
29 mph
46 km/h
21 mph
34 km/h
16 mph
26 km/h
11 mph
17 km/h
18 mph
29 km/h
21 mph
34 km/h
22 mph
35 km/h
25 mph
40 km/h
27 mph
44 km/h
30 mph
48 km/h
30 mph
48 km/h
0%0%0%0%0%0%0%0%0%0%0%0%0%0%0%0%0%0%0%0%0%0%0%0%0%0%0%0%0%0%0%0%0%0%0%0%0%0%0%0%0%0%0%0%0%0%0%0%
6 mi
10 km
6 mi
10 km
6 mi
10 km
6 mi
10 km
6 mi
10 km
6 mi
10 km
6 mi
10 km
6 mi
10 km
6 mi
10 km
6 mi
10 km
6 mi
10 km
6 mi
10 km
6 mi
10 km
6 mi
10 km
6 mi
10 km
6 mi
10 km
6 mi
10 km
6 mi
10 km
6 mi
10 km
6 mi
10 km
6 mi
10 km
6 mi
10 km
6 mi
10 km
6 mi
10 km
6 mi
10 km
6 mi
10 km
6 mi
10 km
6 mi
10 km
6 mi
10 km
6 mi
10 km
6 mi
10 km
6 mi
10 km
6 mi
10 km
6 mi
10 km
6 mi
10 km
6 mi
10 km
6 mi
10 km
6 mi
10 km
6 mi
10 km
6 mi
10 km
6 mi
10 km
6 mi
10 km
6 mi
10 km
6 mi
10 km
6 mi
10 km
6 mi
10 km
6 mi
10 km
6 mi
10 km

Day/Time
Weather
Condition
Temperature
Dew Point
Pressure
Humidity
Wind Direction
Wind Speed
Prob Precip %
Visibility
Prob Precip % = Probability of Precipitation.